Retour au catalogue

DCUBED-1

ActifScienceSSO
NORAD 67364·PAYLOAD·🇩🇪 Germany
Ce nom de satellite n'a pas encore été confirmé par des sources officielles.

Lancé Jan 11, 2026 depuis Vandenberg Space Force Base

Loading…

Prochains Passages (prochaines 24 heures)

TLE

FraisSource: Space-Track

Époque: Sep 13, 2026, 22:23 UTC

1 67364U 26004B   26256.93267162  .00001216  00000-0  13860-3 0  9996
2 67364  97.8128 254.1472 0008172 187.7921 172.3170 14.87955421 36489

Suivez DCUBED-1 en temps réel avec AllMySat

Download on the App Store